sat.trackr.live / text

‹ back to catalog

STARLINK-32038

NORAD 60281 · 2024-132D

PAYLOAD ACTIVE UNKNOWN

§ Identity

Operator
Country
US
Launch date
2024-07-28
Launch site
AFETR
Launch vehicle
Mass (kg)
RCS (m²)

Purposes: comms

External: N2YO · Heavens-Above · Gunter

§ Orbital elements

Epoch: 2026-09-21T01:51:08.553312Z

Period
93.85 min
Inclination
53.1597°
Eccentricity
0.0000759
Mean motion
15.34394548 rev/d
Perigee alt
462.2 km
Apogee alt
463.2 km
Semi-major
6,840.9 km
B*
-2.2087e-5
RAAN
222.8515°
Arg perigee
80.1915°
Mean anomaly
279.9173°
Rev number
12,150

§ Raw data

STARLINK-320381 60281U 24132D   26264.07718233 -.00001122  00000+0 -22087-4 0  99902 60281  53.1597 222.8515 0000759  80.1915 279.9173 15.34394548121502

JSON: /api/v1/satellites/60281 · /tle

For live sub-satellite position, see the globe view (requires WebGL).

§ Visibility from observer

Set your observer location to see the next 7 days of passes ≥ 10°. The values pass through the URL so the page stays shareable.

No JS? Fill the form by hand. The geolocation button needs JavaScript.